This is the latest recevied weather packets stored in our database for station/object SV9TNF-51. If no packets are shown the sender has not sent any weather packets the latest 10 day(s).
| Time | Temp. | Humidity | Pressure | Rain* | Wind** | Luminosity | Snow |
|---|---|---|---|---|---|---|---|
| 1787910079 | 34.44° C | 36% | 1012.2 hPa | 0 mm | 4.02 m/s, 114° | - | - |
| 1787909778 | 35.56° C | 34% | 1011.9 hPa | 0 mm | 4.47 m/s, 356° | - | - |
| 1787909478 | 34.44° C | 36% | 1011.9 hPa | 0 mm | 6.71 m/s, 125° | - | - |
| 1787909178 | 35° C | 36% | 1011.9 hPa | 0 mm | 5.81 m/s, 91° | - | - |
| 1787908878 | 35° C | 37% | 1011.9 hPa | 0 mm | 4.92 m/s, 124° | - | - |
| 1787908578 | 33.89° C | 38% | 1011.9 hPa | 0 mm | 5.81 m/s, 111° | - | - |
| 1787908278 | 33.89° C | 38% | 1011.9 hPa | 0 mm | 8.05 m/s, 129° | - | - |
| 1787907978 | 33.33° C | 39% | 1011.9 hPa | 0 mm | 4.92 m/s, 118° | - | - |
| 1787907678 | 33.89° C | 39% | 1011.9 hPa | 0 mm | 5.81 m/s, 90° | - | - |
| 1787907378 | 33.89° C | 39% | 1011.9 hPa | 0 mm | 5.36 m/s, 130° | - | - |
| 1787907078 | 33.33° C | 40% | 1011.9 hPa | 0 mm | 7.15 m/s, 90° | - | - |
| 1787906777 | 33.89° C | 40% | 1012.2 hPa | 0 mm | 5.36 m/s, 108° | - | - |
| 1787906478 | 33.89° C | 39% | 1012.2 hPa | 0 mm | 5.81 m/s, 90° | - | - |
| 1787906177 | 34.44° C | 39% | 1012.2 hPa | 0 mm | 2.68 m/s, 131° | - | - |
| 1787905877 | 33.89° C | 39% | 1012.2 hPa | 0 mm | 4.92 m/s, 149° | - | - |
| 1787905577 | 33.33° C | 39% | 1012.2 hPa | 0 mm | 6.71 m/s, 113° | - | - |
| 1787905277 | 33.89° C | 39% | 1012.2 hPa | 0 mm | 4.92 m/s, 138° | - | - |
| 1787904977 | 33.89° C | 38% | 1012.2 hPa | 0 mm | 3.58 m/s, 120° | - | - |
| 1787904677 | 33.89° C | 39% | 1012.2 hPa | 0 mm | 4.92 m/s, 120° | - | - |
| 1787904376 | 33.33° C | 39% | 1012.2 hPa | 0 mm | 4.92 m/s, 142° | - | - |
| 1787904076 | 33.33° C | 40% | 1012.2 hPa | 0 mm | 4.92 m/s, 110° | - | - |
| 1787903776 | 34.44° C | 38% | 1012.2 hPa | 0 mm | 4.92 m/s, 111° | - | - |
| 1787903476 | 34.44° C | 38% | 1012.2 hPa | 0 mm | 4.47 m/s, 118° | - | - |
| 1787903177 | 35° C | 37% | 1012.2 hPa | 0 mm | 1.79 m/s, 126° | - | - |
| 1787902615 | 34.44° C | 37% | 1012.2 hPa | 0 mm | 4.47 m/s, 114° | - | - |
* Rain latest hour (hover to see other rain measurements)
** Current wind speed in m/s (hover to see current wind gust speed)